Simultaneous Nadir Overpasses (SNOs) Predictions

Prediction of SNOs between FY3D and NOAA-19 Satellite Orbit:

Table of predicted SNOs for the next 14.0 days since TLE Epoch: 9/10/2023
Index Date (FY3D) Time (FY3D) Lat,Lon (FY3D) SZA (FY3D ) Date (NOAA-19) Time (NOAA-19) Lat,Lon (NOAA-19) SZA (NOAA-19 ) Distance(km) Time Diff (sec)
1 09/23/2023 10:19:47 76.11, 19.28 76.12 09/23/2023 10:18:38 76.10, 17.24 76.16 54.53 69
2 09/23/2023 11:10:39 -76.39,-174.44 103.57 09/23/2023 11:09:36 -76.37,-174.47 103.58 1.89 63
3 09/23/2023 12:01:25 76.41, -7.19 76.47 09/23/2023 12:00:30 76.40, -7.11 76.46 2.18 55
4 09/23/2023 12:52:11 -76.42, 160.07 103.51 09/23/2023 12:51:34 -76.41, 160.17 103.52 2.70 37
5 09/23/2023 13:42:56 76.39, -32.51 76.48 09/23/2023 13:42:29 76.39, -32.63 76.48 3.22 27
6 09/23/2023 14:33:42 -76.40, 134.76 103.50 09/23/2023 14:33:33 -76.40, 134.65 103.50 2.75 9
7 09/23/2023 15:24:28 76.42, -57.99 76.54 09/23/2023 15:24:27 76.43, -57.98 76.55 1.12 1
8 09/23/2023 16:15:14 -76.43, 109.27 103.44 09/23/2023 16:15:31 -76.44, 109.30 103.44 1.18 17
9 09/23/2023 17:06:00 76.45, -83.48 76.59 09/23/2023 17:06:26 76.42, -83.50 76.57 2.97 26
10 09/23/2023 17:56:46 -76.46, 83.78 103.38 09/23/2023 17:57:30 -76.43, 83.77 103.42 3.13 44
11 09/23/2023 18:47:31 76.43,-108.80 76.60 09/23/2023 18:48:24 76.46,-108.85 76.63 3.14 53
12 09/23/2023 19:38:17 -76.44, 58.46 103.37 09/23/2023 19:39:28 -76.47, 58.42 103.36 2.79 71
13 09/23/2023 20:29:08 76.68,-135.15 76.90 09/23/2023 20:30:18 76.66,-133.50 76.85 42.29 70



Historial Predications of SNOs between FY3D and NOAA-19
